Location: Timmins
(48.4758°N, 81.3305°W)
Time: 18:32:22
(UTC-04:00)

ISS - Visible Passes

Search period start: 22 July 2019 00:00
Search period end: 01 August 2019 00:00
Orbit: 409 x 418 km, 51.6° (Epoch: 22 July)

Date Brightness Start Highest point End Pass type
(mag) Time Alt. Az. Time Alt. Az. Time Alt. Az.
22 Jul -2.7 00:01:22 10° WNW 00:04:36 46° N 00:07:44 11° ENE visible
22 Jul -2.9 01:38:10 10° WNW 01:40:32 43° WNW 01:40:32 43° WNW visible
22 Jul -2.7 23:11:59 10° W 23:15:14 47° N 23:18:29 10° ENE visible
23 Jul -3.5 00:48:52 10° WNW 00:52:12 66° NNE 00:52:24 64° NE visible
23 Jul -2.9 22:22:34 10° W 22:25:51 52° N 22:29:07 10° ENE visible
23 Jul -3.1 23:59:33 10° WNW 00:02:50 54° N 00:04:24 27° ENE visible
24 Jul -1.5 01:36:19 10° WNW 01:37:12 17° W 01:37:12 17° W visible
24 Jul -2.9 23:10:11 10° WNW 23:13:27 48° N 23:16:29 11° E visible
25 Jul -2.9 00:46:57 10° WNW 00:49:17 42° W 00:49:17 42° W visible
25 Jul -2.7 22:20:47 10° WNW 22:24:02 46° N 22:27:16 10° ENE visible
25 Jul -3.8 23:57:37 10° WNW 00:00:58 80° NNE 00:01:25 63° E visible
26 Jul -3.4 23:08:15 10° WNW 23:11:35 62° NNE 23:13:34 22° E visible
27 Jul -1.7 00:45:05 10° WNW 00:46:23 20° W 00:46:23 20° W visible
27 Jul -3.0 22:18:53 10° WNW 22:22:11 52° N 22:25:27 10° E visible
27 Jul -3.5 23:55:38 10° WNW 23:58:35 52° WSW 23:58:35 52° WSW visible
28 Jul -3.9 23:06:15 10° WNW 23:09:36 82° SSW 23:10:48 37° ESE visible
29 Jul -0.9 00:43:35 10° W 00:43:37 10° W 00:43:37 10° W visible
29 Jul -3.7 22:16:51 10° WNW 22:20:13 74° NNE 22:23:03 14° ESE visible
29 Jul -2.1 23:53:49 10° W 23:55:52 24° WSW 23:55:52 24° WSW visible
30 Jul -3.1 23:04:15 10° WNW 23:07:25 41° SSW 23:08:08 35° S visible
31 Jul -3.6 22:14:47 10° WNW 22:18:06 62° SSW 22:20:26 18° SE visible
31 Jul -1.1 23:52:43 10° WSW 23:53:15 11° WSW 23:53:15 11° WSW visible
